Location: Mohawk View
(42.7837°N, 73.7885°W)
Time: 08:51:10
(UTC+00:00)

Meteor 1-24 Rocket - Pass Details

Date: 31 October 2021
Orbit: 790 x 927 km, 81.3° (Epoch: 27 November)

Event Time Altitude Azimuth Distance (km) Brightness Sun altitude
Rises 09:45:25 0° 194° (SSW) 3,296 6.7 -19.3°
Reaches altitude 10° 09:47:46 10° 196° (SSW) 2,382 5.9 -18.9°
Maximum altitude 09:53:08 72° 281° (W) 867 3.5 -17.9°
Drops below altitude 10° 09:58:44 10° 6° (N) 2,480 6.2 -16.9°
Sets 10:01:13 0° 9° (N) 3,441 6.9 -16.5°
